This is the latest recevied weather packets stored in our database for station/object KM4KBD. If no packets are shown the sender has not sent any weather packets the latest 10 day(s).
| Time | Temp. | Humidity | Pressure | Rain* | Wind** | Luminosity | Snow |
|---|---|---|---|---|---|---|---|
| 1778080107 | 10° C | 99% | 1018.5 hPa | 0 mm | - | 149 W/m² | - |
| 1778079804 | 10° C | 98% | 1018.6 hPa | 0 mm | - | 150 W/m² | - |
| 1778079500 | 10° C | 99% | 1018.6 hPa | 0 mm | - | 116 W/m² | - |
| 1778079197 | 10° C | 99% | 1018.3 hPa | 0 mm | - | 110 W/m² | - |
| 1778078895 | 10° C | 99% | 1017.9 hPa | 0 mm | - | 91 W/m² | - |
| 1778078591 | 10° C | 99% | 1017.9 hPa | 0 mm | - | 91 W/m² | - |
| 1778078289 | 10° C | 99% | 1018 hPa | 0 mm | - | 77 W/m² | - |
| 1778077986 | 10° C | 99% | 1018 hPa | 0 mm | - | 67 W/m² | - |
| 1778077684 | 10° C | 99% | 1018 hPa | 0 mm | - | 69 W/m² | - |
| 1778077382 | 10° C | 99% | 1017.9 hPa | 0 mm | - | 74 W/m² | - |
| 1778077080 | 10° C | 99% | 1017.7 hPa | 0 mm | - | 73 W/m² | - |
| 1778076778 | 10° C | 99% | 1017.6 hPa | 0 mm | - | 77 W/m² | - |
| 1778076475 | 10° C | 99% | 1017.7 hPa | 0 mm | - | 66 W/m² | - |
| 1778076172 | 10° C | 99% | 1017.7 hPa | 0 mm | - | 64 W/m² | - |
| 1778075869 | 10° C | 99% | 1017.7 hPa | 0 mm | - | 63 W/m² | - |
| 1778075565 | 10° C | 99% | 1017.4 hPa | 0 mm | - | 67 W/m² | - |
| 1778075262 | 10° C | 99% | 1017.7 hPa | 0 mm | - | 74 W/m² | - |
| 1778074958 | 10° C | 99% | 1017.4 hPa | 0 mm | - | 71 W/m² | - |
| 1778074656 | 10° C | 99% | 1017.3 hPa | 0 mm | - | 91 W/m² | - |
| 1778074352 | 10° C | 99% | 1017 hPa | 0 mm | - | 90 W/m² | - |
| 1778074049 | 9.44° C | 99% | 1017 hPa | 0 mm | - | 84 W/m² | - |
| 1778073746 | 9.44° C | 99% | 1017.3 hPa | 0 mm | - | 65 W/m² | - |
| 1778073444 | 9.44° C | 99% | 1017.2 hPa | 0 mm | - | 47 W/m² | - |
| 1778073140 | 9.44° C | 99% | 1017 hPa | 0 mm | - | 52 W/m² | - |
| 1778072837 | 9.44° C | 99% | 1016.9 hPa | 0 mm | - | 49 W/m² | - |
* Rain latest hour (hover to see other rain measurements)
** Current wind speed in m/s (hover to see current wind gust speed)